Weather History for Naples, FL

Change the Weather History Date:

Friday, March 22, 2013

  Actual Average Record
Temperature  
Mean Temperature 67 °F 70 °F  
Max Temperature 81 °F 80 °F 88 °F (1977)
Min Temperature 53 °F 61 °F 42 °F (1960)
Degree Days  
Heating Degree Days 0 0  
Month to date heating degree days 63 19  
Since 1 July heating degree days 157 252  
Cooling Degree Days 2 6  
Month to date cooling degree days 32 117  
Year to date cooling degree days 360 308  
Growing Degree Days 16 (Base 50)    
Moisture  
Dew Point 58 °F    
Average Humidity 73    
Maximum Humidity 87    
Minimum Humidity 58    
Precipitation  
Precipitation 0.00 in 0.08 in 4.64 in (1953)
Month to date precipitation 0.62 1.57  
Year to date precipitation 2.44 5.52  
Snow  
Snow 0.00 in - - ()
Month to date snowfall 0.0  
Since 1 July snowfall 0.0  
Snow Depth 0.00 in    
Sea Level Pressure  
Sea Level Pressure 29.94 in    
Wind  
Wind Speed 9 mph (ESE)    
Max Wind Speed 20 mph    
Max Gust Speed 23 mph    
Visibility 10 miles    
Events      
T = Trace of Precipitation, MM = Missing Value Source: NWS Daily Summary

Daily Weather History Graph

Daily Weather History Graph

Search for Another Location

Airport:

Trip Planner

Search our weather history database for the weather conditions in past years. The results will help you decide how hot, cold, wet, or windy it might be!

Date:

Astronomy

Mar. 22, 2013 Rise Set
Actual Time 7:28 AM EDT 7:39 PM EDT
Civil Twilight 7:05 AM EDT 8:02 PM EDT
Nautical Twilight 6:38 AM EDT 8:29 PM EDT
Astronomical Twilight 6:11 AM EDT 8:56 PM EDT
Moon 3:28 PM EDT (3/22) 4:03 AM EDT (3/22)
Length of Visible Light 12h 56m
Length of Day
12h 10m
Waxing Gibbous, 77% of the Moon is Illuminated
Mar 22
Waxing Gibbous
Mar 27
Full
Apr 3
Last Quarter
Apr 10
New
Apr 18
First Quarter

Hourly Weather History & Observations

Time (EDT) Temp. Heat Index Dew Point Humidity Pressure Visibility Wind Dir Wind Speed Gust Speed Precip Events Conditions
12:53 AM 57.0 °F - 51.1 °F 81% 29.95 in 10.0 mi NE 3.5 mph - N/A   Clear
1:53 AM 54.0 °F - 48.9 °F 83% 29.93 in 10.0 mi ENE 4.6 mph - N/A   Clear
2:53 AM 54.0 °F - 46.0 °F 75% 29.91 in 10.0 mi NE 5.8 mph - N/A   Clear
3:53 AM 53.1 °F - 43.0 °F 69% 29.90 in 10.0 mi NE 5.8 mph - N/A   Clear
4:53 AM 53.1 °F - 42.1 °F 66% 29.90 in 10.0 mi ENE 5.8 mph - N/A   Clear
5:53 AM 53.1 °F - 42.1 °F 66% 29.90 in 10.0 mi NE 4.6 mph - N/A   Clear
6:53 AM 53.1 °F - 43.0 °F 69% 29.93 in 10.0 mi ENE 4.6 mph - N/A   Clear
7:53 AM 54.0 °F - 44.1 °F 69% 29.95 in 10.0 mi ENE 5.8 mph - N/A   Partly Cloudy
8:53 AM 57.9 °F - 46.0 °F 65% 29.97 in 10.0 mi NE 6.9 mph - N/A   Mostly Cloudy
9:53 AM 66.9 °F - 52.0 °F 59% 29.97 in 10.0 mi East 6.9 mph - N/A   Mostly Cloudy
10:53 AM 72.0 °F - 59.0 °F 64% 29.98 in 10.0 mi ESE 5.8 mph - N/A   Mostly Cloudy
11:53 AM 78.1 °F - 64.0 °F 62% 29.98 in 10.0 mi SSE 12.7 mph 17.3 mph N/A   Scattered Clouds
12:53 PM 78.1 °F - 64.9 °F 64% 29.97 in 10.0 mi SSE 13.8 mph - N/A   Mostly Cloudy
1:53 PM 79.0 °F - 66.0 °F 64% 29.95 in 10.0 mi SSE 13.8 mph - N/A   Mostly Cloudy
2:53 PM 79.0 °F - 64.9 °F 62% 29.94 in 10.0 mi SSW 15.0 mph - N/A   Mostly Cloudy
3:53 PM 79.0 °F - 66.9 °F 66% 29.91 in 10.0 mi SSE 13.8 mph - N/A   Partly Cloudy
4:53 PM 80.1 °F 82.7 °F 68.0 °F 67% 29.89 in 10.0 mi South 17.3 mph 23.0 mph N/A   Scattered Clouds
5:53 PM 78.1 °F - 69.1 °F 74% 29.90 in 10.0 mi South 16.1 mph - N/A   Mostly Cloudy
6:53 PM 77.0 °F - 69.1 °F 76% 29.91 in 10.0 mi South 10.4 mph - N/A   Mostly Cloudy
7:53 PM 75.0 °F - 69.1 °F 82% 29.93 in 10.0 mi South 6.9 mph - N/A   Mostly Cloudy
8:53 PM 73.9 °F - 69.1 °F 85% 29.95 in 10.0 mi South 3.5 mph - N/A   Scattered Clouds
9:53 PM 73.0 °F - 69.1 °F 87% 29.95 in 10.0 mi SSE 5.8 mph - N/A   Scattered Clouds
10:53 PM 73.0 °F - 70.0 °F 90% 29.96 in 9.0 mi SSE 8.1 mph - N/A   Clear
11:53 PM 73.0 °F - 70.0 °F 90% 29.95 in 10.0 mi SSE 9.2 mph - N/A   Mostly Cloudy